Showing default

HULIANWANG DIGUI-13, 62973

Orbit data source: Space-Track

HULIANWANG DIGUI-13, 62973 is a payload satellite owned by Zhongguo Xingwang (CN) in LEO that was launched on Tue, 11 Feb 2025 UTC via a CHANG ZHENG 8A launch vehicle from the Wenchang Satellite Launch Center (WSC). Payload-class satellites include a variety of spacecraft equipped with specific instruments for various scientific and technological missions. These include communications satellites like Starlink; space stations such as the ISS; scientific satellites like the Hubble; Earth observation satellites from companies like Planet Labs, Umbra, and HawkEye 360; GPS; miniature CubeSats for education and research; and military/defense satellites.

Loading next visibility...
Identifier
62973, 2025-030C
Orbit
LEO
Country
Flag of CNCN / PRC
Related business
Manufacturer
CAST
Mission
Operational Civil Communications
Bus & Motor
GUOWANG C, Unknown motor
Mass
~800 kg wet, ~800 kg dry
Launch date (UTC)
2025-02-11 (9 months ago)
Launch vehicle
CHANG ZHENG 8A
Launch site
Wenchang Satellite Launch Center (WSC)
Object type
Payload
Rocket body
Debris
Shape & HBR
Box + 2 Pan, 2.2 m
Radar Cross Section
5.935 m², Large (>1 m²)

Expand to show TLE details & history
Last TLE update: 8 hours ago

TLE from 8 hours ago
0 HULIANWANG DIGUI-13
1 62973U 25030C   25309.26799412 -.00000060  00000-0  13692-3 0  9997
2 62973  50.0037 318.9431 0000842 231.2018 128.8779 13.29327824 36073
Epoch: 2025-11-05T06:25Z
TLE epoch observation values (Epoch: 2025-11-05T06:25:54.691Z)
Latitude
-0.00004°
Longitude
177.72208°
Altitude
1,150.204 km
Speed
7.279 km/s
True Right ascension
21h 15m 46s
True Declination
0° 00' 00"
Sunlit
Object was in daylight at epoch
Visualization orbit readout
Latitude
Unknown
Longitude
Unknown
Altitude
Unknown
Speed
Unknown
Apparent Right ascension
Unknown
Apparent Declination
Unknown
Sunlit
N/A
Visualization observer readout
Local Sidereal Time
10:12:42
Azimuth
Unknown
Elevation
Unknown
Doppler factor
Unknown
Orbital elements
Apogee altitude
1,150.638 km
Perigee altitude
1,149.371 km
Semi-major axis
7,528.142 km
Eccentricity
0.00008
Inclination
50.0037°
RAAN
318.9431°
Arg. of periapsis
231.2018°
True anomaly
128.88541°
Mean anomaly
128.8779°
Eccentric anomaly
128.88166°
Mean motion
3.32286 °/min
Orbital period
108.34 mins
BSTAR
0.00013692
Loading maneuver chart data...
Computing Atmospheric mass density...
Loading historical data...
Loading historical data...
Loading historical data...
Loading historical data...
Loading historical data...
Loading historical data...
Loading historical data...

Documentation

Showing up to 5 results
|